Tracking 29040 objects as of 15-Jun-2024
HD Live streaming from Space Station
objects crossing your sky now

OPS 6026 (DMSP 4A F1)

Track OPS 6026 (DMSP 4A F1) now!
10-day predictions
OPS 6026 (DMSP 4A F1) is classified as:


NORAD ID: 2418
Int'l Code: 1966-082A
Perigee: 672.0 km
Apogee: 840.9 km
Inclination: 98.2 °
Period: 99.8 minutes
Semi major axis: 7127 km
RCS: 0.634 m2 (medium)
Launch date: September 16, 1966
Source: United States (US)
Launch site: AIR FORCE WESTERN TEST RANGE (AFWTR)
Your satellite tracking list
Your tracking list is empty




NASA's NSSDC Master Catalog

Two Line Element Set (TLE):
1 02418U 66082A   24166.95184806  .00000607  00000-0  17973-3 0  9990
2 02418  98.2488 327.9693 0118490  82.9236 278.5411 14.42783861  6657
Source of the keplerian elements: AFSPC